Current weather by "City, St" or "zip code"  
 
Advertise Here

Current Conditions: Hillsville, VA

Overcast


75.0 F

Last Updated on Aug 4 2020, 5:55 pm EDT
Humidity: 66%
Wind Speed: NW 6.9 mph
Barometer 30.03 in
Dewpoint: 63.3 F
Visibility: 10.00 mi
Precip: --
Heat Index: NA
Wind Chill: NA
Current conditions at:

Hillsville, VA (KHLX)

Lat: 36.76667 Lon: 80.81667

Local Radar Image active severe weather and emergency alerts image image weather storm and storm spotter reports image weather observation monitoring service image
Local
Radar
Active
Alerts
Storm Reports Obs
Monitoring

Sign-up For Email & Text Message Weather Alert Notification Services


Advertise Here

Observation History for Hillsville, VA


Time Wind
(mph)
Vis
(mi)
Weather Precip (in) Temperature (F) Relative
Humidity
Wind
Chill
(F)
Heat
Index
(F)
Pressure
Air Dwpt altimeter
(in)
sea level
(mb)
Rmks
5:55 pm EDT NW 6.9 10.00 Overcast -- 75.0 63.3 66% NA NA 30.03 M
4:55 pm EDT W 9.2 10.00 Partly Cloudy -- 78.0 58.6 51% NA NA 30.03 M
3:55 pm EDT NW 9.2 10.00 Partly Cloudy -- 79.0 59.4 51% NA NA 30.03 M
2:55 pm EDT NW 8.1 10.00 Partly Cloudy -- 78.0 60.4 54% NA NA 30.04 M
1:55 pm EDT W 9.2 G 16.1 10.00 Partly Cloudy -- 77.0 62.2 60% NA NA 30.04 M
12:55 pm EDT W 12.7 G 17.3 10.00 Fair -- 76.0 62.6 64% NA NA 30.04 M
11:55 am EDT W 10.4 10.00 Partly Cloudy -- 74.0 64.0 70% NA NA 30.03 M
10:55 am EDT W 9.2 10.00 Mostly Cloudy -- 72.0 65.5 81% NA NA 30.03 M
9:55 am EDT W 9.2 10.00 Mostly Cloudy -- 69.0 66.2 90% NA NA 30.02 M
8:55 am EDT NW 9.2 10.00 Partly Cloudy -- 67.0 65.5 93% NA NA 30.00 M
7:55 am EDT SW 8.1 10.00 Fair -- 64.0 63.5 97% NA NA 29.99 M
6:55 am EDT W 5.8 10.00 Overcast -- 64.0 62.6 96% NA NA 29.97 M
5:55 am EDT W 3.5 10.00 Overcast -- 64.0 63.0 96% NA NA 29.95 M
4:55 am EDT NW 5.8 7.00 Overcast -- 64.0 63.1 96% NA NA 29.95 M
3:55 am EDT N 5.8 10.00 Overcast -- 64.0 63.0 96% NA NA 29.95 M
2:55 am EDT N 0.0 10.00 Mostly Cloudy -- 64.0 63.5 97% NA NA 29.96 M
1:55 am EDT N 0.0 10.00 Overcast -- 65.0 63.9 96% NA NA 29.99 M
12:55 am EDT N 0.0 10.00 Overcast -- 65.0 64.2 96% NA NA 30.02 M
11:55 pm EDT N 0.0 10.00 Overcast -- 65.0 64.4 96% NA NA 30.04 M
10:55 pm EDT N 0.0 10.00 Overcast -- 66.0 64.6 96% NA NA 30.05 M
9:55 pm EDT E 4.6 10.00 Overcast -- 66.0 64.8 96% NA NA 30.06 M
8:55 pm EDT E 3.5 10.00 Partly Cloudy -- 66.0 64.6 96% NA NA 30.05 M
7:55 pm EDT N 0.0 10.00 Partly Cloudy -- 67.0 65.7 96% NA NA 30.05 M
6:55 pm EDT N 0.0 10.00 Partly Cloudy -- 68.0 67.3 97% NA NA 30.06 M

Regional Weather Observation


Hillsville, VA (KHLX)

Overcast
75.0 F

Dublin / New River Valley, VA (KPSK)

Overcast
79.0 F

Bluefield, Mercer County Airport, WV (KBLF)

Light Rain
71.0 F

Virginia Tech Airport, VA (KBCB)

Overcast
77.0 F

Tazewell County Airport, VA (KJFZ)

Mostly Cloudy
71.0 F

Jefferson - Ashe County Airport, NC (KGEV)

Mostly Cloudy
73.0 F